Home > Weather > Leverkusen > Past weeks

Flag for Germany Weather for the Past 2 Weeks in Leverkusen, North Rhine-Westphalia, Germany

Now
61 °F

Clear.


Feels Like: 61 °F
Forecast: 55 / 74 °F
Wind: 6 mph from East

Location: Koeln / Bonn

Current Time: May 7, 2016 at 1:30:23 AM

Latest Report: May 7, 2016 at 12:50 AM


Visibility: 10 mi

Pressure: 29.89 "Hg

Humidity: 48%

Dew Point: 41 °F

Location of LeverkusenLocation

Historic Weather in Leverkusen — Graph

°F

Leverkusen Temperature Yesterday

Maximum temperature yesterday: 75 °F (at 2:50 PM)
Minimum temperature yesterday: 48 °F (at 3:50 AM)
Average temperature yesterday: 63 °F

High & Low Weather Summary for the Past Weeks

 TemperatureHumidityPressure
High75 °F (May 6, 2:50 PM)100% (Apr 24, 11:50 PM)30.42 "Hg (Apr 24, 11:50 PM)
Low34 °F (Apr 24, 3:50 AM)29% (May 4, 7:20 PM)29.53 "Hg (Apr 26, 10:50 AM)
Average48 °F68%30.01 "Hg
* Reported Apr 22 12:20 AM — May 7 12:20 AM, Leverkusen, Weather by CustomWeather, © 2016

Note: Actual official high and low records may vary slightly from our data, if they occured in-between our weather recording intervals... More about our weather records

Advertising

Leverkusen Weather History for the Previous 24 Hours

Scroll right to see more
 ConditionsComfort  
Time TempWeatherWind HumidityBarometerVisibility
12:20 AM
Sat, May 7
61 °FClear.7 mph48%29.89 "Hg10 mi
11:50 PM
Fri, May 6
63 °FClear.7 mph45%29.89 "Hg10 mi
11:20 PM63 °FClear.6 mph45%29.89 "Hg10 mi
10:50 PM63 °FClear.6 mph45%29.89 "Hg10 mi
10:20 PM63 °FPassing clouds.5 mph49%29.89 "HgN/A
9:50 PM68 °FSunny.7 mph38%29.89 "Hg10 mi
9:20 PM68 °FSunny.7 mph38%29.89 "Hg10 mi
8:50 PM70 °FSunny.6 mph38%29.89 "Hg10 mi
8:20 PM72 °FSunny.7 mph36%29.89 "Hg10 mi
7:50 PM72 °FSunny.10 mph38%29.86 "Hg10 mi
7:20 PM73 °FSunny.13 mph36%29.86 "Hg10 mi
6:50 PM75 °FPassing clouds.14 mph34%29.89 "HgN/A
6:20 PM75 °FSunny.13 mph34%29.89 "Hg10 mi
5:50 PM75 °FPassing clouds.13 mph34%29.89 "HgN/A
5:20 PM75 °FSunny.14 mph36%29.89 "Hg10 mi
4:50 PM75 °FPassing clouds.13 mph36%29.89 "HgN/A
4:20 PM75 °FPassing clouds.14 mph36%29.89 "HgN/A
3:50 PM75 °FPassing clouds.14 mph39%29.92 "HgN/A
3:20 PM75 °FPassing clouds.14 mph36%29.92 "HgN/A
2:50 PM75 °FPassing clouds.14 mph36%29.92 "HgN/A
2:20 PM73 °FPassing clouds.15 mph41%29.92 "HgN/A
1:50 PM73 °FPassing clouds.14 mph44%29.95 "HgN/A
1:20 PM72 °FPassing clouds.17 mph44%29.95 "HgN/A
12:50 PM70 °FPassing clouds.16 mph46%29.95 "HgN/A
12:20 PM70 °FPassing clouds.12 mph46%29.95 "HgN/A
11:50 AM68 °FPassing clouds.12 mph49%29.98 "HgN/A
11:20 AM66 °FPassing clouds.12 mph52%29.98 "HgN/A
10:50 AM64 °FPassing clouds.15 mph52%29.98 "HgN/A
10:20 AM63 °FPassing clouds.14 mph56%29.98 "HgN/A
9:50 AM61 °FPassing clouds.15 mph59%29.98 "HgN/A
9:20 AM59 °FPassing clouds.16 mph63%30.01 "HgN/A
8:50 AM59 °FPassing clouds.10 mph63%30.01 "HgN/A
8:20 AM57 °FPassing clouds.8 mph63%30.01 "HgN/A
7:50 AM55 °FPassing clouds.7 mph67%30.01 "HgN/A
7:20 AM52 °FSunny.7 mph77%30.01 "Hg10 mi
6:50 AM50 °FClear.5 mph76%30.01 "Hg10 mi
6:20 AM52 °FClear.7 mph72%30.01 "Hg10 mi
5:50 AM52 °FClear.9 mph72%30.01 "Hg10 mi
5:20 AM52 °FClear.9 mph72%30.04 "Hg10 mi
4:50 AM52 °FClear.8 mph72%30.04 "Hg10 mi
4:20 AM50 °FClear.7 mph76%30.04 "Hg10 mi
3:50 AM48 °FClear.6 mph82%30.04 "Hg10 mi
3:20 AM50 °FClear.6 mph76%30.04 "Hg10 mi
2:50 AM52 °FClear.3 mph72%30.07 "Hg10 mi
2:20 AM54 °FClear.6 mph67%30.07 "Hg10 mi
1:50 AM55 °FClear.7 mph63%30.07 "Hg10 mi
1:20 AM55 °FClear.6 mph63%30.07 "Hg10 mi
Weather by CustomWeather, © 2016

See weather overviewHow to use our weather pages